VK5ALG-13 Weather Reports


time (UTC)temp
F
wind
direction
speed
knots
gust
knots
rain 1hr
in
rain 24hr
in
rain mn
in
humidity
%
barometer
mb
20260504004021 62 197 2.6 5.2 0.00 0.58 0.21 75 1014.9
20260504003024 63 220 3.5 7.8 0.00 0.58 0.21 76 1014.8
20260504002033 62 207 1.7 6.1 0.00 0.58 0.21 78 1014.6
20260504001029 62 238 3.5 7.8 0.00 0.58 0.21 77 1014.5
20260504000027 62 233 1.7 7.0 0.00 0.58 0.21 80 1014.4
20260503235022 61 252 2.6 7.8 0.00 0.58 0.21 81 1014.3
20260503234018 60 278 1.7 5.2 0.00 0.58 0.21 83 1014.3
20260503233035 61 262 2.6 7.0 0.00 0.58 0.21 82 1014.2
20260503232031 61 204 1.7 7.0 0.00 0.58 0.21 84 1014.0
20260503231028 60 284 1.7 2.6 0.01 0.58 0.21 84 1013.8
20260503230025 60 275 1.7 6.1 0.01 0.58 0.21 86 1013.7
20260503225021 59 298 0.9 2.6 0.01 0.58 0.21 87 1013.5
20260503224037 58 299 0.9 2.6 0.01 0.58 0.21 88 1013.4
20260503223034 57 273 0.9 2.6 0.01 0.58 0.21 88 1013.3
20260503222030 57 248 1.7 3.5 0.01 0.58 0.21 87 1013.2
20260503221027 58 253 1.7 5.2 0.00 0.57 0.20 88 1013.0
20260503220023 58 238 1.7 5.2 0.00 0.57 0.20 88 1012.8
20260503215041 58 267 0.9 3.5 0.01 0.57 0.20 88 1012.7
20260503214036 58 243 1.7 5.2 0.01 0.57 0.20 88 1012.7
20260503213053 58 244 1.7 5.2 0.01 0.57 0.20 88 1012.5
20260503212049 58 261 1.7 5.2 0.01 0.57 0.20 88 1012.4
20260503211025 58 312 1.7 6.1 0.01 0.57 0.20 88 1012.2
20260503210022 58 298 1.7 5.2 0.01 0.57 0.20 87 1012.3
20260503205019 58 288 1.7 5.2 0.00 0.56 0.19 87 1012.1
20260503204035 58 308 1.7 3.5 0.00 0.56 0.19 87 1012.1
20260503203032 58 253 1.7 7.0 0.00 0.56 0.19 87 1011.9
20260503202028 58 279 2.6 6.1 0.00 0.56 0.19 87 1011.7
20260503201024 58 278 1.7 5.2 0.00 0.56 0.19 88 1011.7
20260503200021 58 351 1.7 5.2 0.02 0.56 0.19 89 1011.7
20260503195017 57 329 1.7 3.5 0.02 0.56 0.19 89 1011.7
20260503194034 57 307 1.7 5.2 0.02 0.56 0.19 90 1011.7
20260503193030 57 282 1.7 5.2 0.02 0.56 0.19 89 1011.6
20260503192027 57 296 3.5 7.0 0.02 0.56 0.19 89 1011.6
20260503191024 58 234 3.5 11.3 0.02 0.56 0.19 86 1011.5
20260503190025 58 253 2.6 7.0 0.00 0.54 0.17 84 1011.5
20260503185036 58 277 2.6 8.7 0.00 0.54 0.17 83 1011.4
20260503184033 58 288 2.6 3.5 0.00 0.54 0.17 84 1011.4
20260503183049 58 279 1.7 7.0 0.00 0.54 0.17 84 1011.3
20260503182025 58 289 1.7 3.5 0.00 0.54 0.17 85 1011.3
20260503181022 57 244 1.7 5.2 0.00 0.54 0.17 86 1011.4
20260503180018 57 284 2.6 6.1 0.00 0.56 0.17 87 1011.4
20260503175035 57 300 1.7 7.0 0.00 0.59 0.17 87 1011.4
20260503174032 57 323 2.6 6.1 0.00 0.61 0.17 87 1011.5
20260503173048 57 297 2.6 8.7 0.00 0.62 0.17 88 1011.7
20260503172045 56 273 1.7 6.1 0.00 0.64 0.17 89 1011.7
20260503171021 56 284 1.7 5.2 0.00 0.66 0.17 89 1011.8
20260503131017 57 327 1.7 3.5 0.00 0.59 0.59 83 1012.8
20260503081030 60 327 2.6 7.8 0.00 0.28 0.28 75 1011.2
20260503080107 60 281 1.7 3.5 0.00 0.28 0.28 75 1011.1
20260503072032 60 38 2.6 7.0 0.00 0.28 0.28 79 1011.1
20260503071028 60 28 1.7 3.5 0.00 0.28 0.28 78 1011.1
20260503055019 63 293 2.6 6.1 0.03 0.30 0.25 66 1010.9
20260503054036 63 319 3.5 8.7 0.00 0.27 0.22 62 1010.7
20260503053032 64 343 4.3 7.8 0.00 0.29 0.22 61 1010.6
20260503052028 66 317 4.3 7.8 0.00 0.29 0.22 57 1010.6
20260503051025 66 315 3.5 7.8 0.00 0.29 0.22 58 1010.5
20260503050021 65 31 2.6 8.7 0.00 0.29 0.22 58 1010.6
20260503045018 65 320 4.3 12.2 0.00 0.31 0.22 57 1010.5
20260503044035 63 326 2.6 7.8 0.00 0.33 0.22 64 1010.7
20260503043030 64 269 4.3 9.6 0.00 0.36 0.22 59 1010.6
20260503042027 64 342 3.5 11.3 0.00 0.37 0.22 61 1010.7
20260503041023 64 295 3.5 9.6 0.00 0.41 0.22 59 1010.8
20260503040020 64 286 3.5 13.9 0.00 0.41 0.22 60 1010.9
20260503035042 65 354 3.5 8.7 0.00 0.41 0.22 59 1010.9
20260503034033 64 306 3.5 11.3 0.00 0.41 0.22 61 1011.0
20260503033029 64 8 4.3 13.0 0.00 0.42 0.22 61 1011.1
20260503032025 64 326 3.5 7.8 0.00 0.42 0.22 62 1011.2
20260503031022 63 213 2.6 7.8 0.00 0.43 0.22 64 1011.2
20260503030018 62 311 5.2 16.5 0.00 0.45 0.22 64 1011.3
20260503025034 63 307 3.5 8.7 0.00 0.45 0.22 63 1011.3
20260503024031 63 345 3.5 7.8 0.00 0.45 0.22 60 1011.4
20260503023048 64 306 4.3 11.3 0.00 0.45 0.22 63 1011.4
20260503022024 63 328 3.5 7.0 0.00 0.45 0.22 68 1011.5
20260503021040 62 33 3.5 11.3 0.00 0.45 0.22 70 1011.6
20260503020037 61 1 2.6 7.8 0.00 0.45 0.22 71 1011.5
20260503015034 62 48 3.5 13.9 0.00 0.45 0.22 68 1011.6
20260503014050 63 298 3.5 12.2 0.00 0.45 0.22 65 1011.6
20260503013037 63 35 3.5 8.7 0.00 0.45 0.22 66 1011.6
20260503012022 63 341 2.6 8.7 0.00 0.45 0.22 66 1011.6
20260503011018 61 328 3.5 7.8 0.00 0.45 0.22 70 1011.6
20260503010035 61 353 3.5 7.8 0.00 0.45 0.22 69 1011.7
20260503005031 61 36 3.5 12.2 0.00 0.45 0.22 70 1011.6